x

Central Aleutians 230nm Sw Dutch Harbor (46072) Wave Buoy

9:50 - Sat 25th Jun 2016 All times are UTC.

  • Sig Wave height 5.6ft
  • Swell Direction
  • Peak Period 6s
  • Average Period 6s
  • Wind
    9mph, 11mph gusts
  • Sea Temp 45°f
  • Ar Temp 43°f
  • Sea Pressure 1025.2mb

More Historic Weather Station data

Upgrade to MSW Pro to gain access to the past 30 days of data for over 8000 Wavebouys and Weather Stations around the globe.

Join Pro

Comparision Forecast

View Surf forecast
   
Sáb 06/25 9:50 5.5ft 6s 6s 9 11 mph 1025.2mb 45f 43f
8:50 5ft 6s 6s 9 11 mph 1025.3mb 45f 42f
7:50 5.5ft 9s 6s 11 16 mph 1025mb 45f 43f
6:50 5.5ft 7s 6s 16 18 mph 1024.8mb 45f 44f
5:50 5.5ft 6s 6s 16 20 mph 1024.8mb 45f 44f
4:50 5.5ft 7s 6s 16 20 mph 1024.9mb 45f 45f
3:50 6ft 7s 6s 18 20 mph 1025.1mb 45f 45f
2:50 6ft 7s 6s 16 22 mph 1025.2mb 46f 45f
1:50 6.5ft 6s 6s 18 20 mph 1025.5mb 46f 45f
12:50 6.5ft 7s 6s 18 22 mph 1026mb 46f 45f
Sex 06/24 11:50 6.5ft 7s 6s 20 25 mph 1025.9mb 46f 45f
10:50 6ft 7s 6s 18 20 mph 1026.3mb 46f 45f
9:50 7ft 7s 6s 16 20 mph 1026.8mb 46f 45f
8:50 6.5ft 7s 6s 22 27 mph 1026.5mb 46f 44f
7:50 6ft 7s 6s 20 25 mph 1026.6mb 47f 44f
6:50 6ft 7s 6s 22 27 mph 1026.7mb 47f 44f
5:50 5.5ft 7s 6s 20 22 mph 1026.9mb 47f 44f
4:50 6.5ft 7s 6s 18 20 mph 1027mb 47f 44f
3:50 6ft 7s 6s 20 25 mph 1026.5mb 47f 44f
2:50 7ft 7s 6s 22 27 mph 1026.6mb 47f 44f
1:50 6ft 7s 5s 20 25 mph 1026.8mb 46f 44f
12:50 6.5ft 7s 6s 22 27 mph 1027mb 46f 44f
11:50 6.5ft 7s 6s 20 25 mph 1027.3mb 46f 44f
10:50 7.5ft 7s 6s 20 25 mph 1027.5mb 46f 44f
9:50 7ft 7s 6s 18 22 mph 1027.5mb 45f 45f
8:50 6ft 7s 6s 20 25 mph 1027.5mb 45f 45f
7:50 6.5ft 7s 6s 20 25 mph 1027.4mb 45f 45f
6:50 6ft 8s 6s 25 29 mph 1026.8mb 46f 45f
5:50 6.5ft 7s 6s 20 25 mph 1027.4mb 46f 45f
4:50 7ft 7s 6s 20 22 mph 1027.2mb 46f 45f
3:50 7ft 8s 6s 20 25 mph 1027.5mb 46f 45f
2:50 7ft 8s 6s 18 22 mph 1027.5mb 46f 45f
1:50 7ft 8s 6s 18 22 mph 1027.7mb 46f 45f
12:50 8ft 8s 6s 20 25 mph 1027.3mb 46f 45f
Qui 06/23 11:50 7.5ft 8s 6s 20 25 mph 1027.5mb 46f 45f
10:50 8ft 8s 6s 20 25 mph 1027.3mb 46f 45f
9:50 7.5ft 8s 6s 18 22 mph 1027mb 46f 45f
8:50 8ft 8s 7s 18 22 mph 1026.5mb 46f 45f
7:50 8ft 8s 7s 18 22 mph 1026.3mb 45f 44f
6:50 8ft 8s 7s 16 20 mph 1025.7mb 45f 44f
5:50 8.5ft 8s 7s 20 22 mph 1025.3mb 45f 44f
4:50 8.5ft 9s 7s 22 25 mph 1025mb 45f 43f
3:50 8ft 9s 7s 18 22 mph 1024.4mb 45f 44f
2:50 8ft 8s 6s 22 27 mph 1023.9mb 46f 44f
1:50 8ft 9s 6s 22 27 mph 1023.5mb 46f 45f
12:50 8ft 8s 6s 18 22 mph 1023.5mb 46f 45f
11:50 9ft 9s 6s 20 25 mph 1023mb 46f 44f
10:50 9ft 9s 6s 22 27 mph 1022.7mb 46f 45f
9:50 9ft 9s 7s 20 25 mph 1022.3mb 46f 45f
7:50 8ft 9s 7s 20 25 mph 1020.8mb 45f 46f
6:50 10ft 10s 7s 18 20 mph 1020.2mb 45f 46f
5:50 9ft 10s 7s 20 27 mph 1019.2mb 45f 46f
4:50 9.5ft 10s 7s 20 25 mph 1018.4mb 46f 46f
3:50 9ft 10s 7s 20 25 mph 1017.8mb 46f 46f
2:50 9ft 10s 7s 20 25 mph 1017.2mb 46f 46f
1:50 10ft 10s 7s 20 27 mph 1016.7mb 46f 46f
12:50 10.5ft 9s 7s 22 27 mph 1016.4mb 46f 46f
Qua 06/22 11:50 11ft 10s 7s 22 29 mph 1016.2mb 46f 46f
10:50 12ft 10s 7s 22 29 mph 1016.5mb 46f 46f
9:50 13ft 10s 8s 25 31 mph 1016.3mb 47f 46f
8:50 13ft 10s 8s 27 34 mph 1015.9mb 47f 46f
7:50 12.5ft 10s 7s 29 34 mph 1015.6mb 47f 46f
6:50 13ft 9s 8s 29 36 mph 1015.4mb 47f 46f
5:50 13ft 11s 8s 29 36 mph 1015.6mb 47f 46f
4:50 13.5ft 10s 8s 27 34 mph 1015.2mb 47f 46f
3:50 13ft 10s 7s 29 36 mph 1014.5mb 47f 46f
2:50 13ft 10s 7s 29 38 mph 1014.1mb 47f 46f
1:50 12ft 10s 7s 29 36 mph 1014mb 47f 46f
12:50 12.5ft 8s 7s 31 36 mph 1014.1mb 47f 46f
11:50 11ft 10s 7s 29 36 mph 1014.7mb 47f 46f
10:50 11.5ft 10s 7s 31 36 mph 1014.7mb 47f 46f
9:50 12ft 9s 7s 31 38 mph 1014.6mb 48f 46f
8:50 12.5ft 10s 7s 31 38 mph 1014.9mb 48f 46f
7:50 11ft 8s 7s 29 34 mph 1014.8mb 48f 46f
6:50 12ft 10s 7s 27 34 mph 1014.6mb 48f 47f
5:50 11ft 10s 7s 27 34 mph 1014.6mb 48f 46f
4:50 9.5ft 9s 7s 27 34 mph 1015mb 48f 46f
3:50 10ft 8s 7s 29 38 mph 1015.1mb 48f 47f
2:50 9ft 10s 6s 27 36 mph 1015.2mb 48f 46f
1:50 9ft 9s 6s 27 34 mph 1015.3mb 48f 46f
12:50 8.5ft 10s 6s 29 34 mph 1015.3mb 47f 46f
Ter 06/21 11:50 9ft 9s 6s 25 31 mph 1015.6mb 47f 46f
10:50 9.5ft 10s 6s 25 29 mph 1015.7mb 47f 47f
9:50 8.5ft 9s 6s 29 36 mph 1015.1mb 47f 47f
8:50 8.5ft 9s 6s 22 29 mph 1014.9mb 47f 47f
7:50 7ft 8s 6s 22 27 mph 1014.8mb 47f 48f
6:50 7ft 8s 6s 22 27 mph 1014.5mb 47f 47f
4:50 6.5ft 6s 6s 20 25 mph 1014.1mb 47f 48f
3:50 6ft 6s 6s 22 25 mph 1013.8mb 47f 48f
2:50 5.5ft 6s 5s 20 25 mph 1014.1mb 47f 48f
1:50 5ft 5s 5s 18 22 mph 1014.1mb 47f 47f
12:50 5ft 5s 5s 18 22 mph 1014.5mb 47f 48f
11:50 4.5ft 9s 5s 18 22 mph 1014.8mb 47f 48f